www.pogodaiklimat.ru
ПОГОДА в Утай Тани
Время
(UTC), дата
18 26.02
21 26.02
00 27.02
03 27.02
06 27.02
09 27.02
12 27.02
15 27.02
18 27.02
21 27.02
00 28.02
03 28.02
06 28.02
09 28.02
12 28.02
15 28.02
18 28.02
21 28.02
00 1.03
03 1.03
06 1.03
09 1.03
12 1.03
15 1.03
18 1.03
21 1.03
00 2.03
03 2.03
06 2.03
09 2.03
12 2.03
15 2.03
18 2.03
21 2.03
00 3.03
03 3.03
06 3.03
09 3.03
12 3.03
15 3.03
18 3.03
21 3.03
00 4.03
03 4.03
06 4.03
09 4.03
12 4.03
15 4.03
18 4.03
21 4.03
00 5.03
03 5.03
06 5.03
09 5.03
12 5.03
Ветер
(напр.,м/с)
Видим. Явления Облачность Т
(С)
Тd
(С)
f
(%)
Тe
(С)
Тes
(С)
Комфортность P
(гПа)
Po
(гПа)
Тmin
(С)
Tmax
(С)
R
(мм)
R24
(мм)
S
(см)
штиль 0 6000 м дымка 3/0
[Cs]
+25.3 +19.4 70 +31 +31 очень
душно
1005.7 1002.6
штиль 0 5000 м дымка 3/0
[Cs]
+22.3 +20.0 87 +28 +28 душно 1004.7 1001.6
штиль 0 600 м в посл. час туман 3/0
[Cs]
+21.2 +19.8 92 +26 +27 душно 1007.0 1003.9 +20.6
штиль 0 5000 м дымка {туман} 3/0
[Cs]
+29.1 +22.0 66 +38 +54 опасность
солнечного
удара
1009.6 1006.5
ЮВ 4 7000 м мгла 3/0
[Cs]
+35.0 +19.3 40 +40 +52 опасность
солнечного
удара
1007.0 1004.0
В 5 7000 м мгла 4/1 600 м
[Cu med, cong Cs]
+37.0 +14.4 26 +38 +40 душно 1003.7 1000.8
Ю 3 7000 м мгла 3/0
[Cs]
+32.1 +17.2 41 +36 +36 очень
душно
1004.8 1001.8 +37.0
штиль 0 6000 м дымка 3/0
[Cs]
+27.0 +20.1 66 +33 +33 очень
душно
1007.6 1004.6
В 2 6000 м дымка 3/0
[Cs]
+24.2 +18.9 72 +29 +29 душно 1007.2 1004.1
штиль 0 4000 м дымка 3/0
[Cs]
+22.4 +19.7 85 +28 +28 душно 1006.8 1003.8
штиль 0 600 м туман 3/0
[Cs]
+21.3 +19.9 92 +26 +27 душно 1008.9 1005.8 +21.0
Ю 4 2000 м дымка {туман} 5/3 600 м
[Sc Ac lent Cs]
+25.7 +22.7 84 +34 +39 очень
душно
1010.9 1007.8
С 3 4000 м мгла 5/0
[Cs]
+34.2 +20.5 45 +41 +55 опасность
перегрева
1008.6 1005.6
ЮВ 4 6000 м мгла 4/0
[Cs]
+36.3 +16.4 31 +39 +42 очень
душно
1005.8 1002.9
ЮВ 3 6000 м мгла 4/0
[Cs]
+31.1 +19.0 49 +37 +37 очень
душно
1006.4 1003.4 +36.5
Ю 2 6000 м мгла 3/0
[Cs]
+28.8 +21.0 63 +36 +36 очень
душно
1009.5 1006.5
В 3 6000 м дымка 3/0
[Cs]
+24.7 +21.4 82 +31 +31 очень
душно
1009.5 1006.5
ЮВ 3 4000 м дымка 3/0
[Cs]
+24.3 +22.7 91 +32 +32 очень
душно
1009.5 1006.5
штиль 0 1000 м дымка 5/0
[Cs]
+23.1 +22.3 95 +32 +32 очень
душно
1011.3 1008.2 +22.6
Ю 5 5000 м дымка 8/3 600 м
[Sc Cs]
+27.9 +23.8 78 +38 +42 очень
душно
1013.7 1010.7
ЮВ 6 5000 м мгла 3/0
[Cs]
+33.5 +23.1 55 +44 +51 опасность
перегрева
1011.8 1008.9
ЮВ 3 5000 м мгла 3/0
[Cs]
+35.9 +18.6 36 +40 +45 очень
душно
1009.0 1006.1
Ю 3 7000 м мгла 4/0
[Ac trans Cs]
+31.0 +22.8 62 +41 +41 опасность
перегрева
1009.4 1006.4 +36.0
Ю 3 6000 м дымка 3/0
[Cs]
+28.3 +23.0 73 +38 +38 очень
душно
1011.6 1008.5
Ю 6 6000 м дымка 3/0
[Cs]
+26.0 +22.0 79 +34 +34 очень
душно
1011.3 1008.2
ЮВ 4 4000 м дымка 4/3 600 м
[Sc Cs]
+24.6 +21.7 84 +31 +31 очень
душно
1010.4 1007.4
штиль 0 5000 м дымка 5/3 600 м
[Sc Ac lent Cs]
+24.6 +22.5 88 +32 +32 очень
душно
1011.9 1008.8 +24.2
Ю 8 7000 м мгла 6/0
[Ac trans Cs]
+30.5 +22.4 62 +40 +41 очень
душно
1013.8 1010.8
ЮВ 8 7000 м мгла 5/1 600 м
[Sc Ac trans Cs]
+35.2 +22.1 47 +44 +46 опасность
перегрева
1011.2 1008.2
Ю 6 8000 м мгла 5/3 600 м
[Cu med, cong Ac lent Cs]
+36.8 +19.2 36 +42 +43 опасность
перегрева
1008.4 1005.5
Ю 4 7000 м мгла 3/0
[Cs]
+33.2 +22.4 53 +42 +42 опасность
перегрева
1008.4 1005.4 +36.8
Ю 3 7000 м дымка 3/0
[Cs]
+29.9 +23.4 68 +40 +40 очень
душно
1010.4 1007.4
Ю 2 7000 м дымка 3/0
[Cs]
+27.8 +23.4 77 +38 +38 очень
душно
1010.0 1007.0
ЮВ 6 6000 м дымка 3/0
[Cs]
+25.8 +23.2 86 +35 +35 очень
душно
1009.9 1006.9
ЮВ 4 6000 м дымка 6/3 600 м
[Sc Ac lent Cs]
+26.2 +24.6 91 +37 +37 очень
душно
1011.4 1008.4 +25.5
ЮЗ 2 7000 м дымка 6/1 600 м
[Sc Ac trans Cs]
+31.7 +24.7 67 +45 +53 опасность
перегрева
1013.1 1010.1
Ю 7 10 км 6/3 600 м
[Cu med, cong Ac trans Cs]
+35.4 +23.5 50 +46 +49 опасность
перегрева
1010.7 1007.7
ЮВ 6 10 км 6/3 600 м
[Cu Sc Ac trans Cs]
+36.4 +22.9 46 +46 +47 опасность
перегрева
1008.3 1005.3
Ю 10 9000 м дымка 9/5 600 м
[Cu Sc Ac As Cs]
+30.3 +23.2 66 +41 +41 опасность
перегрева
1010.9 1007.9 +36.7
Ю 5 8000 м дымка 9/4 600 м
[Cu Sc Ac As Cs]
+27.7 +23.6 78 +38 +38 очень
душно
1013.7 1010.7
ЮВ 2 8000 м дымка 8/3 600 м
[Sc Ac trans Cs]
+26.7 +23.8 84 +37 +37 очень
душно
1012.9 1009.9
ЮВ 4 8000 м дымка 9/3 600 м
[Sc Ac trans Cs]
+25.9 +24.0 89 +36 +36 очень
душно
1011.9 1008.8
штиль 0 7000 м дымка 9/3 600 м
[Sc Ac trans Cs]
+25.8 +24.6 93 +36 +36 очень
душно
1012.9 1009.8 +25.3
Ю 6 9000 м дымка 8/3 600 м
[Cu hum Ac trans Cs]
+30.2 +24.2 70 +42 +44 опасность
перегрева
1014.2 1011.2
ЮВ 5 10 км 8/4 600 м
[Cu med, cong Ac lent Cs]
+33.5 +23.1 55 +44 +48 опасность
перегрева
1011.7 1008.8
ЮВ 8 10 км 4/1 600 м
[Cu med, cong Ac lent Cs]
+36.3 +21.2 42 +44 +45 опасность
перегрева
1008.8 1005.9
ЮВ 5 10 км 5/3 600 м
[Sc Ac lent Cs]
+32.8 +23.0 56 +43 +43 опасность
перегрева
1009.4 1006.5 +36.5
СВ 3 9000 м дымка 4/1 600 м
[Cu hum Cs]
+29.6 +23.4 69 +40 +40 очень
душно
1010.9 1007.9
Ю 5 8000 м дымка 3/0
[Cs]
+28.1 +22.0 70 +37 +37 очень
душно
1011.0 1008.0
С 5 7000 м дымка 3/0
[Cs]
+26.0 +22.7 82 +34 +34 очень
душно
1011.1 1008.1
ЮВ 4 7000 м дымка 3/0
[Cs]
+25.5 +24.0 91 +35 +35 очень
душно
1011.9 1008.8 +25.0
ЮВ 9 8000 м дымка 5/0
[Ac trans Cs]
+31.5 +24.0 65 +43 +44 опасность
перегрева
1013.5 1010.5
СВ 5 10 км 3/3 600 м
[Cu med, cong Cs]
+36.0 +11.7 23 +36 +43 очень
жарко
1011.1 1008.1
ЮЗ 6 9000 м гроза, ливневой дождь 8/4 300 м
[Cb cap Ac As Cs]
+29.9 +23.2 67 +40 +41 очень
душно
1008.2 1005.2 0.0
Ю 3 8000 м слаб. дождь {гроза} 9/6 600 м
[Cu Sc Ac As Cs]
+26.5 +22.7 80 +35 +35 очень
душно
1009.4 1006.4 +37.5 1 1.4
Местоположение метеостанции Утай Тани (Таиланд): широта 15.38 долгота 100.04 высота над уровнем моря 26 м.
В архиве по умолчанию представлена погода в Утай Тани за последнюю неделю. Архивные данные за месяц целиком и за предыдущие месяцы, начиная с января 2011 года, Вы можете получить, выбрав интересующий диапазон дат из раскрывающегося списка и нажав кнопку "Найти!".
*Определитесь, кто Вы:
Внимание! Время в таблицах - всемирное. Для получения местного времени необходимо прибавить поправку, которая равна 7 ч.
Смотрите также архив погоды в соседних городах и на ближайших метеорологических станциях:
Партнеры нашего сайта:      
Пояснения к столбцам:
  • Ветер - указаны скорость ветра в м/с - средняя за 10 мин, порывы в срок и между сроками (в фигурных скобках) и направление, откуда дует ветер: С - северный,
  • СВ - северо-восточный, В - восточный, ЮВ - юго-восточный, Ю - южный, ЮЗ - юго-западный, З - западный, СЗ - северо-западный.
  • Видимость - горизонтальная дальность видимости в метрах или километрах. При видимости от 1 до 10 км при отсутствии осадков обычно наблюдается дымка, при ухудшении видимости до 1 км и менее - туман. В сухую погоду видимость может ухудшаться дымом, пылью или мглою.
  • Явления - указаны атмосферные явления, наблюдавшиеся в срок или в последний час перед сроком; фигурными скобками обозначены явления, наблюдавшиеся между сроками (за 1-3 часа до срока); квадратными скобками обозначены град или гололедные отложения с указанием их диаметра в мм.
  • Облачность - указаны через наклонную черту общая и нижняя облачность в баллах и высота нижней границы облаков в метрах; квадратными скобками обозначены формы облаков: Ci - перистые, Cs - перисто-слоистые, Cc - перисто-кучевые, Ac - высококучевые, As - высокослоистые, Sc - слоисто-кучевые, Ns - слоисто-дождевые, Cu - кучевые, Cb - кучево-дождевые. Подробнее классификацию облаков см. в Атласе облаков (PDF).
  • T - Температура воздуха - температура, измеренная на высоте 2 м над землей.
  • Td - Температура точки росы - температура, при понижении до которой содержащийся в воздухе водяной пар достигнет насыщения.
  • f - Относительная влажность воздуха - влажноcть воздуха, измеренная на высоте 2 м над землей.
  • Te - Эффективная температура - температура, которую ощущает одетый по сезону человек в тени. Характеристика душности погоды. При расчете учитывается влияние влажности воздуха и скорости ветра на теплоощущения человека.
  • Tes - Эффективная температура на солнце - температура, которую ощущает человек, с поправкой на солнечный нагрев. Характеристика знойности погоды. Зависит от высоты солнца над горизонтом, облачности и скорости ветра. Ночью, в пасмурную погоду, а также при ветре 12 м/с и более поправка равна нулю.
  • P - Атмосферное давление - приведенное к уровню моря атмосферное давление.
  • Po - Атмосферное давление - измеренное на уровне метеостанции атмосферное давление.
  • Tmin - Минимальная температура - минимум температуры воздуха на высоте 2 м над землей.
  • Tmax - Максимальная температура - максимум температуры воздуха на высоте 2 м над землей.
  • R - Количество осадков - Количество выпавших осадков за период времени, мм. При наведении курсора мыши на число - период времени, за который выпало указанное количество осадков.
  • R24 - Количество осадков - Количество выпавших осадков за 24 часа, мм.
  • S - Снежный покров - Высота снежного покрова, см. При наведении курсора мыши на число - состояние снежного покрова и степень покрытия местности в баллах.